This demonstration page uses our WeatherBlox Daily Observations layout. Learn more.

Left ArrowRight Arrow

39.08367, -84.50855

Hourly Observations for March 14, 2019

Temp ( °F °C ) Dew Point ( °F °C ) Humidity (%) Winds ( mph kmh ) Pressure ( in mb ) Visibility ( mi km ) Precip ( " mm )
12:53 am 00:53 Clear 61 16.1 37 2.8 41 41 S 9 15 29.91 1013 10 16 N/A
1:53 am 01:53 Clear 63 17.2 36 2.2 37 37 S 14 22 29.89 1012 10 16 N/A
2:53 am 02:53 Clear 64 17.8 36 2.2 35 35 S 18 30 29.88 1012 10 16 N/A
3:53 am 03:53 Clear 63 17.2 38 3.3 40 40 S 15 24 29.87 1012 10 16 N/A
4:53 am 04:53 Partly Cloudy 63 17.2 40 4.4 43 43 S 15 24 29.86 1011 10 16 N/A
5:53 am 05:53 Cloudy with Light Rain 59 15 45 7.2 60 60 S 7 11 29.84 1011 9 14 N/A
6:53 am 06:53 Cloudy with Light Rain 54 12.2 49 9.4 83 83 N N/A 29.84 1011 9 14 0.11 2.79
7:53 am 07:53 Cloudy with Light Rain 54 12.2 49 9.4 83 83 N N/A 29.86 1011 9 14 0.06 1.52
8:53 am 08:53 Cloudy 52 11.1 50 10 93 93 SW 3 6 29.85 1011 10 16 N/A
9:53 am 09:53 Cloudy with Light Rain 54 12.2 51 10.6 90 90 S 8 13 29.86 1011 3 5 0.03 0.76
10:25 am 10:25 Cloudy with Light Rain 55 12.8 53 11.7 93 93 SSE 7 11 29.84 1011 3 5 0.03 0.76
10:53 am 10:53 Cloudy with Light Rain 56 13.3 54 12.2 93 93 SSE 3 6 29.82 1010 10 16 0.03 0.76
11:53 am 11:53 Cloudy 58 14.4 55 12.8 90 90 N N/A 29.78 1008 10 16 N/A
12:53 pm 12:53 Sunny 66 18.9 58 14.4 75 75 S 8 13 29.72 1007 10 16 N/A
1:53 pm 13:53 Mostly Cloudy 73 22.8 57 13.9 57 57 S 24 39 29.66 1005 10 16 N/A
2:53 pm 14:53 Cloudy 73 22.8 56 13.3 55 55 S 22 35 29.63 1003 10 16 N/A
3:53 pm 15:53 Cloudy 73 22.8 56 13.3 55 55 S 17 28 29.59 1002 10 16 N/A
4:53 pm 16:53 Cloudy 74 23.3 55 12.8 52 52 S 24 39 29.54 1000 10 16 N/A
5:12 pm 17:12 Cloudy with Strong Thunderstorms 74 23.3 55 12.8 52 52 WSW 38 61 29.57 1001 10 16 N/A
5:16 pm 17:16 Cloudy with Strong Thunderstorms 69 20.6 58 14.4 68 68 W 26 43 29.59 1002 2 3 0.07 1.78
5:23 pm 17:23 Cloudy with Strong Thunderstorms 65 18.3 60 15.6 84 84 SW 14 22 29.59 1002 2 2 0.08 2.03
5:27 pm 17:27 Cloudy with Light Rain 66 18.9 60 15.6 81 81 WSW 18 30 29.58 1002 7 11 0.08 2.03
5:53 pm 17:53 Cloudy 72 22.2 57 13.9 59 59 S 22 35 29.53 1000 10 16 0.08 2.03
6:16 pm 18:16 Cloudy with Nearby Thunderstorms 65 18.3 59 15 81 81 W 31 50 29.58 1002 1 1 0.18 4.57
6:26 pm 18:26 Cloudy with Nearby Thunderstorms 63 17.2 60 15.6 90 90 W 16 26 29.56 1001 2 3 0.25 6.35
6:35 pm 18:35 Cloudy with Strong Thunderstorms 63 17.2 60 15.6 90 90 W 24 39 29.58 1002 2 3 0.39 9.91
6:39 pm 18:39 Cloudy with Strong Thunderstorms 62 16.7 60 15.6 93 93 SSW 21 33 N/A 0 0 0.71 18.03
6:45 pm 18:45 Cloudy with Nearby Thunderstorms 63 17.2 61 16.1 93 93 SW 21 33 N/A 0 0 0.71 18.03
6:49 pm 18:49 Cloudy with Nearby Thunderstorms 63 17 61 16 94 94 SW 21 33 N/A 2 3 0.72 18.29
6:53 pm 18:53 Cloudy with Nearby Thunderstorms 62 16.7 61 16.1 96 96 SSW 16 26 N/A 2 3 0.78 19.81
7:08 pm 19:08 Mostly Cloudy with Nearby Thunderstorms 64 17.8 62 16.7 93 93 SW 15 24 N/A 10 16 N/A
7:36 pm 19:36 Mostly Cloudy 65 18.3 61 16.1 87 87 SSW 14 22 29.59 1002 10 16 0.02 0.51
7:53 pm 19:53 Mostly Cloudy 64 17.8 61 16.1 90 90 SSW 14 22 N/A 10 16 0.02 0.51
8:00 pm 20:00 Mostly Cloudy with Nearby Thunderstorms 64 17.8 61 16.1 90 90 SSW 17 28 N/A 10 16 N/A
8:26 pm 20:26 Mostly Cloudy with Rain 64 17.8 61 16.1 90 90 SW 14 22 29.62 1003 5 8 N/A
8:53 pm 20:53 Mostly Cloudy with Light Rain 64 17.8 61 16.1 90 90 SW 14 22 N/A 8 13 N/A
9:00 pm 21:00 Partly Cloudy with Light Rain 64 17.8 59 15 84 84 SW 14 22 N/A 8 13 N/A
9:53 pm 21:53 Partly Cloudy 65 18.3 59 15 81 81 SSW 16 26 N/A 10 16 N/A
10:53 pm 22:53 Clear 62 16.7 47 8.3 58 58 WSW 13 20 N/A 10 16 N/A
11:53 pm 23:53 Clear 58 14.4 42 5.6 56 56 WSW 9 15 N/A 10 16 N/A

Powered by AerisWeather